Location: Big Sandy Campground
(37.4666°N, 119.5821°W)
Time: 22:50:06
(UTC+00:00)

Cosmos 2315 Rocket - Pass Details

Date: 03 August 2024
Orbit: 965 x 1002 km, 82.9° (Epoch: 07 September)

Event Time Altitude Azimuth Distance (km) Brightness Sun altitude
Rises 12:21:34 0° 177° (S) 3,711 6.8 -8.5°
Reaches altitude 10° 12:24:06 10° 175° (S) 2,764 6.1 -8.1°
Maximum altitude 12:30:24 68° 93° (E) 1,070 4.5 -7.0°
Drops below altitude 10° 12:36:43 10° 12° (NNE) 2,768 7.0 -5.9°
Sets 12:39:15 0° 10° (N) 3,717 7.6 -5.4°
